Back to catalog

SL-12 DEB

LostHEO
NORAD 28152·DEBRIS·🇷🇺 Russia

Launched Sep 16, 1988 from Baikonur Cosmodrome

Loading…

Next Passes (next 24 hours)

TLE

StaleSource: Space-Track

Epoch: May 18, 2007, 07:31 UTC

1 28152U 88085CM  07138.31377540 +.00005626 +00000-0 +61501-1 0  9999
2 28152 065.5647 056.4434 5203700 007.0484 355.9160 04.77391847068147

Track SL-12 DEB in real time with AllMySat

Download on the App Store